This is the latest recevied weather packets stored in our database for station/object N7CEE. If no packets are shown the sender has not sent any weather packets the latest 10 day(s).
| Time | Temp. | Humidity | Pressure | Rain* | Wind** | Luminosity | Snow |
|---|---|---|---|---|---|---|---|
| 1777728268 | 2.78° C | 45% | 1026.5 hPa | 0 mm | - | 20 W/m² | - |
| 1777727965 | 2.78° C | 46% | 1026.6 hPa | 0 mm | - | 18 W/m² | - |
| 1777727662 | 2.78° C | 44% | 1026.2 hPa | 0 mm | - | 16 W/m² | - |
| 1777727359 | 2.22° C | 44% | 1026.2 hPa | 0 mm | - | 15 W/m² | - |
| 1777727056 | 2.22° C | 46% | 1026.1 hPa | 0 mm | - | 14 W/m² | - |
| 1777726754 | 2.78° C | 43% | 1026.1 hPa | 0 mm | - | 12 W/m² | - |
| 1777726451 | 2.78° C | 42% | 1025.8 hPa | 0 mm | - | 9 W/m² | - |
| 1777726147 | 2.78° C | 43% | 1026.1 hPa | 0 mm | - | 7 W/m² | - |
| 1777725844 | 2.78° C | 42% | 1026.1 hPa | 0 mm | - | 5 W/m² | - |
| 1777725542 | 2.78° C | 43% | 1026 hPa | 0 mm | - | 3 W/m² | - |
| 1777725239 | 2.78° C | 42% | 1025.8 hPa | 0 mm | - | 2 W/m² | - |
| 1777724936 | 2.78° C | 43% | 1025.7 hPa | 0 mm | - | 1 W/m² | - |
| 1777724632 | 2.78° C | 45% | 1026 hPa | 0 mm | - | 0 W/m² | - |
| 1777724331 | 2.78° C | 44% | 1025.8 hPa | 0 mm | - | 0 W/m² | - |
| 1777724027 | 3.33° C | 43% | 1025.8 hPa | 0 mm | - | 0 W/m² | - |
| 1777723725 | 3.89° C | 42% | 1025.6 hPa | 0 mm | - | 0 W/m² | - |
| 1777723421 | 4.44° C | 35% | 1025.7 hPa | 0 mm | - | 0 W/m² | - |
| 1777723118 | 3.89° C | 38% | 1025.7 hPa | 0 mm | - | 0 W/m² | - |
| 1777722815 | 3.33° C | 40% | 1025.7 hPa | 0 mm | - | 0 W/m² | - |
| 1777722512 | 3.33° C | 41% | 1025.7 hPa | 0 mm | - | 0 W/m² | - |
| 1777722209 | 3.33° C | 42% | 1025.5 hPa | 0 mm | - | 0 W/m² | - |
| 1777721906 | 3.33° C | 41% | 1025.7 hPa | 0 mm | - | 0 W/m² | - |
| 1777721603 | 3.89° C | 41% | 1025.8 hPa | 0 mm | - | 0 W/m² | - |
| 1777721302 | 3.33° C | 39% | 1025.8 hPa | 0 mm | - | 0 W/m² | - |
| 1777720998 | 3.33° C | 43% | 1025.7 hPa | 0 mm | - | 0 W/m² | - |
* Rain latest hour (hover to see other rain measurements)
** Current wind speed in m/s (hover to see current wind gust speed)